HAWK-10A

Last updated on Mon Sep 16 2024 00:02:03 GMT+0000 (Coordinated Universal Time)

1 60540U 24149CA 24258.93240698 .00003930 00000+0 38919-3 0 9994 2 60540 97.7532 333.9776 0004667 62.0562 298.1129 14.92402576 4334
UTC large
Height (km)
Speed (km/s)
/
Latitude / Longitude
Inclination (degrees)
Orbital Period (minutes)
Azimuth
Elevation
Range (km)
Doppler Factor

Next 0 passes for location: London (51.5072 / 0.1276)

Sorry there are no passes over London.